Tracking 19709 objects as of 18-Jun-2019
HD Live streaming from Space Station
objects crossing your sky now

COSMOS 1619

Track COSMOS 1619 now!
10-day predictions
COSMOS 1619 is classified as:


NORAD ID: 15471
Int'l Code: 1985-003C
Perigee: 1,388.3 km
Apogee: 1,420.9 km
Inclination: 82.6 °
Period: 113.7 minutes
Semi major axis: 7775 km
RCS: 1.1254 m2 (large)
Launch date: January 15, 1985
Source: Commonwealth of Independent States (former USSR) (CIS)
Launch site: PLESETSK MISSILE AND SPACE COMPLEX (PKMTR)
aabbcc
Your satellite tracking list
Your tracking list is empty




NASA's NSSDC Master Catalog

Two Line Element Set (TLE):
1 15471U 85003C   19167.89824260 +.00000005 +00000-0 -33645-4 0  9998
2 15471 082.6078 239.7932 0020992 119.9662 283.1508 12.66201296590402
Source of the keplerian elements: AFSPC